Header for Extended Forecast Station List Page

Search by: ID | Name | Date | Parm | Value | Avg | % Avg
Sort by: ID | Name | Date | Parm | Value | Avg | % Avg

Enter search or view all records.

Click on id for station plot
#IDNameDateParmValueAvg% Avg
0ABOM8CLARK FORK-ABOVE MISSOULA11-28-2022DISCHARGE (KAF)28233584
1AFRI1SNAKE-AMERICAN FALLS RESERVOIR11-28-2022INFLOW (KAF)12041203100
2ALFW1PEND OREILLE-ALBENI FALLS DAM11-28-2022INFLOW (KAF)2965405373
3ALPW4SNAKE-NEAR ALPINE11-28-2022DISCHARGE (KAF)29137578
4ANAW1SNAKE-NEAR ANATONE11-28-2022DISCHARGE (KAF)4157554775
5ANTI1HENRYS FORK-AT ST. ANTHONY11-28-2022DISCHARGE (KAF)30138079
6ARAI1SF BOISE-ANDERSON RANCH DAM11-28-2022INFLOW (KAF)658576
7ARDW1ENTIAT-NEAR ARDENVOIR11-28-2022DISCHARGE (KAF)132652
8BELM8CLARK FORK-BELOW MISSOULA11-28-2022DISCHARGE (KAF)44355680
9BERO3MALHEUR-AGENCY VALLEY DAM11-28-2022INFLOW (KAF)132356
10BFEI1KOOTENAI-AT BONNERS FERRY11-28-2022STAGE (FT)MMM
11BFTI1SNAKE-NEAR BLACKFOOT11-28-2022DISCHARGE (KAF)588582101
12BIGI1BOISE-AT GLENWOOD BRIDGE11-28-2022DISCHARGE (KAF)12765196
13BITM8BITTERROOT-NEAR MISSOULA11-28-2022DISCHARGE (KAF)16021076
14BONM8BLACKFOOT-NEAR BONNER11-28-2022DISCHARGE (KAF)11114079
15BONO3COLUMBIA-BONNEVILLE DAM11-28-2022INFLOW (KAF)295753849777
16BRNI1SNAKE-BROWNLEE DAM11-28-2022INFLOW (KAF)2975321293
17BUDW1BUMPING-BUMPING LAKE DAM11-28-2022INFLOW (KAF)153937
18BULO3BULLY CREEK-BULLY CREEK DAM11-28-2022INFLOW (KAF)184407
19CABI1CLARK FORK-CABINET GORGE DAM11-28-2022INFLOW (KAF)2673357575
20CFMM8FLATHEAD-AT COLUMBIA FALLS11-28-2022DISCHARGE (KAF)83995388
21CHDW1CHELAN-LAKE CHELAN DAM11-28-2022INFLOW (KAF)6220231
22CHEI1FALL RIVER-NEAR CHESTER11-28-2022DISCHARGE (KAF)10111390
23CHJW1COLUMBIA-CHIEF JOSEPH DAM11-28-2022INFLOW (KAF)201962386185
24CIBW1COLUMBIA-AT INTL BOUNDARY11-28-2022DISCHARGE (KAF)162261992381
25CLFW1NACHES-NEAR CLIFFDEL11-28-2022DISCHARGE (KAF)5413141
26CLUW1CLE ELUM-CLE ELUM LAKE11-28-2022INFLOW (KAF)4911542
27COEI1COEUR D ALENE-COEUR D ALENE LAKE11-28-2022INFLOW (KAF)670120656
28CSDI1NF PAYETTE-CASCADE DAM11-28-2022INFLOW (KAF)5710555
29DEDI1DEADWOOD-NEAR LOWMAN11-28-2022INFLOW (KAF)121963
30DLGM8CLARK FORK-AT DEER LODGE11-28-2022DISCHARGE (KAF)435284
31DRMM8CLARK FORK-NR DRUMMOND11-28-2022DISCHARGE (KAF)11112688
32DWRI1NF CLEARWATER-DWORSHAK DAM11-28-2022INFLOW (KAF)45579957
33EASW1YAKIMA-AT EASTON11-28-2022DISCHARGE (KAF)448154
34EMMI1PAYETTE-NEAR EMMETT11-28-2022DISCHARGE (KAF)29236081
35FCFM8NF FLATHEAD-NEAR COLUMBIA FALLS11-28-2022DISCHARGE (KAF)11517765
36GCDW1COLUMBIA-GRAND COULEE DAM11-28-2022INFLOW (KAF)172262169679
37GIBO3UMATILLA-NEAR GIBBON11-28-2022DISCHARGE (KAF)505591
38HALI1BIG WOOD-AT HAILEY11-28-2022DISCHARGE (KAF)303880
39HEII1SNAKE-NEAR HEISE11-28-2022DISCHARGE (KAF)496383129
40HHWM8SF FLATHEAD-HUNGRY HORSE DAM11-28-2022INFLOW (KAF)12524851
41HODO3HOOD-NEAR TUCKER BRIDGE11-28-2022DISCHARGE (KAF)267248108
42HOPI1PEND OREILLE-PEND OREILLE LAKE NR HOPE11-28-2022LAKE ELEVATION (FT)MMM
43HOTI1BRUNEAU-NEAR HOT SPRINGS11-28-2022DISCHARGE (KAF)133340
44HWRI1BIG LOST-AT HOWELL RANCH NEAR CHILLY11-28-2022DISCHARGE (KAF)171893
45IHDW1SNAKE-ICE HARBOR DAM11-28-2022INFLOW (KAF)5615771673
46IPDI1HENRYS FORK-ISLAND PARK DAM11-28-2022INFLOW (KAF)7810575
47JDAO3COLUMBIA-JOHN DAY DAM11-28-2022INFLOW (KAF)286083612479
48JKSW4SNAKE-NEAR JACKSON11-28-2022DISCHARGE (KAF)24231577
49JLKW4SNAKE-JACKSON LAKE AT DAM11-28-2022INFLOW (KAF)7911668
50KADW1KACHESS-KACHESS DAM11-28-2022INFLOW (KAF)285156
51KEDW1YAKIMA-KEECHELUS LAKE11-28-2022INFLOW (KAF)295356
52KERM8FLATHEAD-SELI’Š KSANKA QLISPE’ DAM11-28-2022INFLOW (KAF)939141266
53KIOW1YAKIMA-AT KIONA11-28-2022DISCHARGE (KAF)47282957
54LAUW1KETTLE-AT LAURIER11-28-2022DISCHARGE (KAF)6515043
55LEOI1KOOTENAI-AT LEONIA11-28-2022DISCHARGE (KAF)2045240385
56LGDW1SNAKE-LOWER GRANITE DAM11-28-2022INFLOW (KAF)5188752069
57LGSW1SNAKE-LITTLE GOOSE DAM11-28-2022INFLOW (KAF)5187755669
58LLKW1SPOKANE-AT LONGLAKE11-28-2022INFLOW (KAF)879158356
59LMNW1SNAKE-LOWER MONUMENTAL DAM11-28-2022INFLOW (KAF)5615768673
60LUCI1BOISE-LUCKY PEAK DAM11-28-2022INFLOW (KAF)16418987
61LWRI1LITTLE WOOD-LITTLE WOOD DAM11-28-2022INFLOW (KAF)81553
62LYDM8KOOTENAI-LIBBY DAM11-28-2022INFLOW (KAF)61183373
63MACI1BIG LOST-MACKAY RESERVOIR NEAR MACKAY11-28-2022INFLOW (KAF)313882
64MAGI1BIG WOOD-MAGIC DAM11-28-2022INFLOW (KAF)242981
65MCDW1COLUMBIA-MCNARY DAM11-28-2022INFLOW (KAF)270923444279
66MILI1SNAKE-AT MILNER11-28-2022DISCHARGE (KAF)M55M
67MODO3DESCHUTES-AT MOODY NR BIGGS11-28-2022DISCHARGE (KAF)991141570
68MONO3NF JOHN DAY-AT MONUMENT11-28-2022DISCHARGE (KAF)13023156
69MYKO3MCKAY CREEK-NEAR PILOT ROCK11-28-2022DISCHARGE (KAF)4035114
70NACW1NACHES-NEAR NACHES11-28-2022DISCHARGE (KAF)5317929
71NOXM8CLARK FORK-NOXON RAPIDS DAM11-28-2022INFLOW (KAF)2421312777
72ORFI1CLEARWATER-AT OROFINO11-28-2022DISCHARGE (KAF)417100242
73OWYO3OWYHEE-OWYHEE DAM11-28-2022INFLOW (KAF)13715489
74PARI1BOISE-NEAR PARMA11-28-2022DISCHARGE (KAF)267202132
75PARW1YAKIMA-NEAR PARKER11-28-2022DISCHARGE (KAF)34657760
76PATW1METHOW-NEAR PATEROS11-28-2022DISCHARGE (KAF)7310768
77PDTO3UMATILLA-AT PENDLETON11-28-2022DISCHARGE (KAF)11914284
78PESW1WENATCHEE-AT PESHASTIN11-28-2022DISCHARGE (KAF)13633840
79PIHI1PORTNEUF-AT POCATELLO11-28-2022DISCHARGE (KAF)405572
80PITW1KLICKITAT-NEAR PITT11-28-2022DISCHARGE (KAF)31837286
81PLDI1SF SNAKE-PALISADES DAM11-28-2022INFLOW (KAF)46758380
82PRTI1PRIEST-NEAR PRIEST RIVER11-28-2022DISCHARGE (KAF)12423852
83PRWW1COLUMBIA-PRIEST RAPIDS DAM11-28-2022INFLOW (KAF)208672559482
84RCCM8ROCK CREEK-NEAR CLINTON11-28-2022DISCHARGE (KAF)4846105
85REXI1HENRYS FORK-AT REXBURG11-28-2022DISCHARGE (KAF)35043680
86RIDI1WILLOW CREEK-RIRIE DAM11-28-2022INFLOW (KAF)71448
87RILW1TIETON-RIMROCK LAKE NEAR RIMROCK11-28-2022INFLOW (KAF)427656
88RRHW1COLUMBIA-ROCKY REACH DAM11-28-2022INFLOW (KAF)207212489983
89SATI1ST MARIES-NEAR SANTA11-28-2022DISCHARGE (KAF)237232
90SERO3JOHN DAY-AT SERVICE CK11-28-2022DISCHARGE (KAF)20836457
91SHYI1SNAKE-NEAR SHELLEY11-28-2022DISCHARGE (KAF)65167996
92SIFI1SNAKE-AB EAGLE ROCK NR IDAHO FALLS11-28-2022DISCHARGE (KAF)67167599
93SJMI1ST JOE-AT ST MARIES11-28-2022STAGE (FT)MMM
94SNAI1SNAKE-AT BLACKFOOT11-28-2022DISCHARGE (KAF)58659499
95SPDI1CLEARWATER-AT SPALDING11-28-2022DISCHARGE (KAF)1040188455
96SPOW1SPOKANE-AT SPOKANE11-28-2022DISCHARGE (KAF)609131446
97SRGM8CLARK FORK-AT ST REGIS11-28-2022DISCHARGE (KAF)54674773
98STRM8ST. REGIS-NEAR ST. REGIS11-28-2022DISCHARGE (KAF)194739
99SWAI1SNAKE-BELOW SWAN FALLS11-28-2022DISCHARGE (KAF)1727187892
100TCHW1WALLA WALLA-NEAR TOUCHET11-28-2022DISCHARGE (KAF)17719690
101TDAO3COLUMBIA-THE DALLES DAM11-28-2022INFLOW (KAF)287883674778
102TEAI1TETON-NEAR ST. ANTHONY11-28-2022DISCHARGE (KAF)719773
103TNAW1TEANAWAY-BELOW FORKS11-28-2022DISCHARGE (KAF)275846
104TONW1OKANOGAN-NEAR TONASKET11-28-2022DISCHARGE (KAF)19131261
105TRYO3GRANDE RONDE-TROY11-28-2022DISCHARGE (KAF)28550357
106UMAO3UMATILLA-NEAR UMATILLA11-28-2022DISCHARGE (KAF)11613486
107UMTW1YAKIMA-AT UMTANUM11-28-2022DISCHARGE (KAF)20334160
108UNDW1WHITE SALMON-NEAR UNDERWOOD11-28-2022DISCHARGE (KAF)22128478
109WANW1COLUMBIA-WANAPUM DAM11-28-2022INFLOW (KAF)208672552282
110WEII1SNAKE-AT WEISER11-28-2022DISCHARGE (KAF)2737298092
111WELW1COLUMBIA-WELLS DAM11-28-2022INFLOW (KAF)204452450783
112WGCM8MF FLATHEAD-NEAR WEST GLACIER11-28-2022DISCHARGE (KAF)4615929
113WHBI1SALMON-AT WHITEBIRD11-28-2022DISCHARGE (KAF)846107079
114WRMO3MALHEUR-WARM SPRINGS DAM11-28-2022INFLOW (KAF)174143
115WSRI1WEISER-NEAR WEISER11-28-2022DISCHARGE (KAF)15918984